Wind_Speed
9 9 9 9 8 7 6 5 4 4 6 8 10 12 13 14 15 14 14 13 14 14 14 13 12 12 12 13 13 14 14 14 13 11 10 15 20 22 21 20 20 18 16 15 13 10 8 6 4 5 7 7 5 5 7 8 8 7 7 4 2 1 8 15 18 20 20 20 20 18 17 16 18 20 21 22 20 16 16 16 15 15 16 18 19 18 18 19
8 8 9 9 9 8 7 6 5 4 4 5 8 10 12 14 15 16 15 14 14 14 14 14 14 13 13 13 13 13 14 15 14 11 13 17 17 18 19 20 20 18 17 16 13 10 8 5 5 6 8 8 6 6 8 9 10 10 10 8 5 1 10 19 20 18 19 19 18 18 18 18 18 21 23 22 19 15 14 16 17 16 18 20 20 19 17 18
9 9 8 8 9 9 8 7 6 5 5 5 6 8 10 12 14 16 16 16 15 14 14 15 15 14 14 13 13 13 13 15 14 14 16 15 13 15 16 18 19 19 19 17 14 12 10 8 7 7 8 8 7 7 9 10 11 11 11 11 8 5 16 22 21 17 18 17 17 18 19 20 20 21 21 19 16 13 12 15 18 19 19 21 21 19 17 17
11 10 9 9 9 9 9 8 7 6 6 5 5 6 8 10 13 15 16 17 17 16 14 15 15 15 15 14 14 13 13 14 15 17 17 14 14 15 14 16 18 19 20 19 17 15 14 12 10 10 9 8 8 9 9 10 11 11 11 12 10 12 20 21 19 17 17 16 16 17 19 20 19 19 18 16 13 14 15 16 17 16 17 19 21 19 17 17
12 12 11 10 10 10 9 9 8 7 6 6 6 6 7 9 11 13 15 16 17 17 16 15 15 15 15 15 14 14 14 14 16 18 18 15 16 15 14 16 18 20 20 20 19 17 16 14 12 11 10 10 9 9 9 9 10 11 10 11 12 15 19 18 16 15 14 15 15 16 17 18 17 16 16 13 11 13 17 19 16 12 13 17 19 18 17 17
13 13 12 11 11 10 10 9 9 8 8 7 6 6 7 8 9 11 13 15 17 17 17 16 16 16 16 15 15 15 15 14 16 19 18 16 16 15 15 16 18 20 21 21 21 19 17 15 13 12 11 11 10 9 9 9 10 10 7 8 12 15 18 17 15 13 10 12 15 15 15 15 15 15 15 13 11 13 17 20 14 11 14 16 17 17 17 17
14 13 12 11 11 11 10 10 9 9 9 8 8 7 7 7 8 9 12 14 15 17 17 18 17 16 16 16 15 15 16 15 15 18 19 18 18 16 16 17 17 19 21 22 21 20 18 16 14 13 13 12 11 10 10 9 10 8 6 8 10 13 18 16 12 10 8 10 14 14 13 13 13 13 14 13 14 15 19 20 11 11 18 18 17 16 16 17
14 14 13 11 10 10 10 10 10 10 10 10 9 9 8 8 8 8 10 12 14 16 17 18 18 17 16 16 16 15 16 17 15 17 19 20 18 16 16 17 16 17 20 22 21 21 19 17 16 15 14 12 11 11 10 10 9 7 7 9 9 10 15 15 12 10 9 11 14 13 12 12 12 12 13 13 15 17 19 19 11 12 19 19 18 17 16 17
14 14 13 12 11 10 10 11 12 12 11 11 10 10 10 9 9 8 9 11 13 15 16 18 19 18 17 16 16 15 16 18 16 16 19 20 19 18 18 17 15 15 18 21 22 22 20 18 17 16 15 13 12 11 9 10 9 8 9 9 8 8 10 13 13 11 10 12 14 13 12 12 12 13 14 14 16 17 18 17 11 14 21 20 19 18 17 17
14 14 13 13 12 11 11 11 12 12 13 13 12 12 11 10 9 9 9 11 12 14 15 16 18 19 18 17 16 16 17 18 17 17 19 21 20 19 19 18 15 14 16 21 22 22 20 19 19 18 16 13 12 10 7 9 9 9 8 7 7 7 7 11 15 14 12 12 13 14 12 11 12 14 15 16 17 17 17 16 12 16 21 20 20 18 17 17
14 14 14 13 13 12 11 11 11 12 12 13 13 13 12 11 10 10 10 10 11 13 14 15 17 18 18 17 16 16 18 18 18 18 20 21 21 20 20 19 16 14 15 19 21 21 21 21 20 18 15 13 11 8 5 8 9 9 7 5 6 7 6 10 15 15 14 13 14 14 12 11 13 13 14 15 17 17 16 15 14 18 21 20 20 19 18 18
14 14 14 13 12 11 11 11 11 11 12 12 12 12 12 12 11 10 10 10 11 12 14 14 16 18 19 17 17 17 18 18 18 19 20 22 22 22 22 20 18 17 16 19 21 21 22 22 21 18 14 13 11 7 5 7 8 9 8 4 5 8 8 9 13 15 15 15 15 16 13 13 14 14 14 15 16 17 16 15 17 20 21 21 20 20 19 19
14 14 14 13 12 11 10 10 10 11 11 11 11 11 11 11 11 11 10 10 11 12 13 14 15 17 18 17 18 18 18 18 18 19 21 22 22 23 22 22 21 19 20 22 23 23 22 22 22 19 14 13 11 8 7 7 7 9 8 5 4 9 10 10 13 14 15 15 16 18 15 15 16 15 15 15 15 17 17 18 20 21 22 21 21 20 20 19
13 13 13 12 12 10 10 10 10 11 11 11 10 10 9 9 10 9 8 9 10 11 12 13 14 15 17 17 18 18 17 18 18 19 20 21 22 23 23 22 22 21 22 25 26 25 23 23 23 19 14 13 11 9 10 8 8 9 8 5 6 9 10 11 13 14 15 15 17 19 16 14 17 16 15 15 14 16 19 21 22 22 22 22 21 21 20 19
13 13 12 11 11 11 10 10 10 11 12 11 10 9 8 7 7 7 7 7 8 9 11 13 13 13 16 16 17 18 17 18 19 19 20 21 21 22 23 23 22 22 22 25 26 25 24 25 25 20 15 14 12 11 11 9 9 11 8 5 8 10 10 11 11 12 14 15 17 17 15 13 15 16 14 15 15 16 19 22 24 23 23 23 22 21 20 19
12 12 11 11 11 11 10 10 11 11 12 10 9 8 6 5 5 5 5 5 6 8 10 12 12 12 14 16 17 18 18 19 20 20 20 21 21 22 23 24 23 23 23 25 26 25 26 27 26 22 17 15 13 12 12 9 10 12 9 7 8 9 10 11 10 10 11 14 19 18 16 14 14 15 15 15 16 16 19 22 24 24 24 23 21 21 20 19
12 11 11 10 11 11 10 10 11 11 11 10 9 7 6 4 3 3 4 4 6 8 9 11 11 12 13 15 17 19 19 20 20 20 20 21 22 21 23 24 25 23 23 24 26 27 28 28 26 23 19 16 14 14 13 10 11 15 13 9 9 8 9 10 10 10 10 14 20 18 16 17 14 14 15 16 17 17 18 21 24 25 25 24 22 21 20 19
12 11 10 10 10 10 10 10 10 10 9 10 9 8 7 5 3 3 3 4 6 7 8 9 10 11 12 14 17 19 19 19 19 20 21 22 21 21 22 23 24 24 23 24 28 30 29 27 25 23 20 17 16 16 13 9 11 16 16 11 8 7 8 9 9 9 10 12 18 18 16 16 15 16 17 16 17 18 19 20 23 25 25 24 23 22 21 19
12 11 10 10 10 9 8 8 8 8 9 10 10 10 8 6 4 3 2 4 6 7 7 8 11 12 12 14 17 19 20 19 18 18 19 21 21 21 21 22 23 24 23 24 29 31 30 26 25 24 23 20 18 16 13 9 8 11 14 11 7 6 6 8 8 7 9 10 13 17 16 14 15 18 19 16 16 19 20 20 22 25 25 25 24 23 22 20
11 10 9 10 8 7 6 6 6 7 9 10 10 10 7 5 4 3 2 3 5 7 7 8 11 13 12 14 17 19 19 17 16 16 16 19 21 21 21 21 23 24 22 24 29 32 30 27 26 27 25 20 16 14 12 9 7 8 14 14 8 5 4 5 7 7 8 9 9 13 15 14 13 17 19 18 18 19 22 22 22 24 25 25 25 23 22 20
10 9 9 8 6 4 4 5 7 8 9 10 10 9 6 4 4 4 2 2 3 6 8 8 10 12 12 14 16 18 19 17 14 14 15 16 20 20 20 22 23 25 23 22 28 31 30 29 29 28 23 19 15 13 11 8 8 10 15 15 8 6 6 5 6 6 6 8 8 9 12 12 11 14 19 21 19 19 21 23 23 25 26 25 24 23 22 20
10 9 8 6 3 2 3 5 7 8 9 10 10 8 6 6 5 4 1 2 2 3 7 8 10 11 11 13 14 18 19 16 15 15 14 16 18 19 20 22 23 25 25 23 27 30 29 32 31 26 21 18 16 14 12 9 11 10 11 15 8 4 6 5 5 6 6 8 8 8 10 11 11 12 17 21 20 18 19 22 23 24 26 25 24 23 23 22
9 9 6 3 1 2 3 6 8 9 9 9 10 8 8 8 7 5 4 3 2 4 8 11 12 11 11 10 11 17 17 14 16 15 14 15 17 18 19 21 22 24 24 25 29 30 28 30 30 25 20 19 16 16 15 11 12 10 9 13 8 3 5 4 5 7 7 7 8 8 9 11 13 14 15 18 19 19 20 22 23 24 25 25 24 23 23 23
9 8 4 1 1 3 4 6 8 9 9 9 9 9 10 10 9 8 8 8 7 9 13 14 13 11 10 8 9 15 14 12 15 15 15 15 16 17 17 19 22 22 23 25 29 30 27 26 27 25 21 19 18 17 17 14 12 12 12 13 10 5 4 3 4 8 7 7 8 9 9 11 14 15 16 18 19 21 22 24 25 25 25 25 25 24 23 23
8 6 2 2 3 4 5 8 9 9 9 9 10 11 11 11 10 8 9 10 12 15 15 14 12 9 8 6 8 12 12 12 14 14 14 15 15 15 16 18 21 21 22 25 28 29 27 21 21 25 23 20 19 18 18 16 15 14 13 16 13 6 4 4 4 8 8 9 10 10 7 8 14 17 16 17 19 21 23 25 26 26 26 26 26 26 25 24
7 4 2 3 4 5 7 9 10 11 11 11 11 11 11 10 10 9 11 13 15 14 11 10 9 8 7 8 9 11 11 13 14 13 12 14 13 13 15 18 20 20 22 26 27 27 27 20 16 21 25 23 21 20 19 18 17 15 13 14 12 10 9 8 5 7 8 8 11 13 7 4 10 16 17 17 19 20 22 24 25 27 28 27 27 27 26 25
5 2 4 5 6 8 9 10 12 12 12 11 11 11 10 10 10 12 12 12 11 8 7 7 5 7 9 10 11 10 11 14 14 11 11 12 12 10 13 17 19 20 22 25 24 22 25 23 18 17 20 24 26 24 21 19 17 15 14 12 9 9 10 9 7 7 8 7 9 14 11 5 7 13 16 17 19 20 23 25 25 27 28 28 28 28 27 26
4 3 5 6 8 10 12 12 12 12 11 11 11 10 9 9 10 11 8 5 4 4 6 6 6 9 12 13 11 7 8 14 13 11 11 11 10 8 11 15 17 17 20 23 20 18 22 23 21 18 16 20 27 28 24 20 18 15 14 13 10 6 4 4 6 8 8 6 8 13 13 6 5 10 13 16 20 22 24 26 27 27 28 28 28 29 28 26
3 5 6 8 10 12 13 12 12 11 11 11 11 11 9 9 10 9 6 3 3 3 5 6 7 10 12 13 10 7 9 12 10 11 13 12 9 7 8 11 14 14 16 19 17 16 16 17 19 20 18 18 21 26 26 24 21 15 10 12 11 6 2 4 7 7 6 6 8 13 14 7 5 9 14 15 17 20 23 27 27 27 28 28 28 28 28 27
4 6 7 8 11 12 12 12 11 11 10 11 12 13 11 10 9 7 5 4 4 3 4 5 6 9 13 13 8 9 12 10 7 11 13 11 10 8 8 9 12 13 13 16 18 18 16 13 15 18 19 18 16 19 24 23 21 16 12 11 8 4 4 6 7 5 4 4 6 10 13 9 4 6 12 14 10 7 12 21 26 27 28 29 29 28 28 26
5 6 7 9 11 12 12 11 10 10 9 9 11 13 13 13 11 7 4 4 5 3 4 7 8 9 11 10 7 10 12 8 7 9 10 11 11 9 8 8 10 11 10 11 13 17 19 17 16 16 17 18 15 15 19 22 20 16 13 12 7 6 7 7 6 6 4 2 0 4 10 11 8 5 5 8 7 2 3 9 18 26 29 29 30 29 28 26
6 7 7 10 11 11 11 11 9 10 9 9 9 10 12 14 14 10 5 3 4 4 4 9 9 6 7 7 7 9 9 6 6 7 8 11 12 9 8 8 8 8 8 9 9 12 17 19 18 16 15 18 16 14 17 21 20 17 14 13 9 6 6 5 4 4 5 4 1 2 5 10 12 11 7 8 9 8 7 4 7 19 28 30 30 30 29 27
7 8 9 11 11 10 10 9 9 9 8 9 10 10 12 13 10 11 10 6 4 4 3 7 7 5 5 7 8 9 8 6 4 6 9 11 12 10 9 8 8 7 5 7 8 7 9 14 19 18 16 18 19 16 18 18 17 19 19 16 12 6 4 3 2 2 4 7 6 3 4 7 10 11 12 13 13 12 13 10 5 10 23 29 29 30 29 28
8 9 10 11 11 10 9 9 9 9 8 9 7 5 10 11 8 11 13 10 6 5 5 6 6 6 5 7 9 9 8 6 5 7 10 12 11 10 10 8 8 8 6 5 7 5 5 8 13 17 16 18 21 20 18 15 13 17 21 19 15 11 7 4 4 5 2 3 6 6 4 4 6 8 10 10 10 9 9 10 9 7 17 27 30 30 30 28
9 10 11 10 10 9 8 7 8 8 9 8 5 5 10 9 8 11 13 11 8 6 7 7 7 8 7 7 9 8 6 5 6 8 9 11 10 7 7 8 8 9 9 7 4 3 4 4 6 13 15 15 18 21 20 15 10 14 20 21 17 14 9 5 6 8 4 4 5 7 7 7 8 9 9 8 8 8 6 7 11 9 13 24 29 31 31 29
9 10 10 9 9 9 7 6 5 4 4 3 4 10 15 11 9 10 11 11 9 5 7 8 7 7 7 7 7 7 6 7 9 10 10 9 8 6 5 5 4 7 11 9 5 2 3 4 4 10 16 15 13 18 22 18 12 12 20 23 18 13 9 6 6 7 5 3 5 7 9 12 12 11 11 9 9 8 6 5 11 10 10 19 25 28 30 28
10 10 9 7 8 7 7 7 4 4 3 2 5 14 14 11 11 10 9 10 8 4 3 6 6 5 6 7 7 7 6 9 10 11 11 9 6 6 6 3 2 3 9 11 8 5 5 7 6 8 12 16 15 14 18 20 16 13 18 24 20 14 11 9 4 4 5 4 4 8 11 11 10 10 10 10 8 8 6 5 11 12 10 15 21 24 27 27
11 10 8 7 7 6 7 5 5 5 3 2 10 15 12 11 11 10 9 9 7 4 3 6 5 4 7 8 7 9 9 9 10 9 10 9 6 6 6 4 4 3 4 9 9 5 3 6 6 7 8 15 18 16 16 19 21 16 13 19 20 14 14 14 7 2 5 4 2 7 12 12 13 14 12 10 7 6 6 7 11 12 10 12 19 23 25 26
10 9 7 7 6 6 6 5 5 4 1 5 12 13 10 11 10 9 9 8 6 5 4 6 5 5 8 8 8 9 8 8 10 8 8 8 7 6 5 5 4 4 3 6 7 5 3 3 3 6 6 10 18 20 18 18 22 21 14 16 21 16 14 17 13 6 4 3 3 4 5 10 17 19 17 14 10 7 7 10 12 12 11 11 16 22 24 25
9 8 7 7 6 6 6 6 5 3 3 9 13 11 10 11 10 9 8 8 6 6 6 5 5 7 9 9 9 9 7 8 11 9 8 8 7 5 4 5 5 5 4 5 4 3 5 4 3 3 3 7 14 20 22 19 19 23 19 17 22 20 14 15 17 13 6 2 4 4 3 7 16 18 17 16 14 10 9 12 13 13 13 12 14 18 22 24
8 7 7 7 6 6 6 6 5 4 7 11 12 10 10 10 9 9 8 7 6 5 6 5 6 9 10 10 10 9 8 9 10 9 7 9 7 4 4 3 4 4 4 3 3 1 3 3 5 6 3 6 11 15 21 21 18 21 22 20 20 20 17 13 11 14 12 5 4 5 4 6 13 16 16 17 16 13 12 13 15 15 14 13 13 16 19 22
8 7 7 7 6 6 7 7 6 7 9 10 10 9 8 8 8 7 7 7 5 4 5 5 6 8 9 11 12 11 11 10 9 8 7 8 7 4 3 2 1 3 3 0 2 2 2 3 5 5 4 7 11 13 17 19 17 19 21 20 19 20 22 17 11 12 14 8 5 6 5 5 11 14 15 17 17 16 15 15 16 16 14 12 12 14 17 19
8 7 7 6 6 7 7 7 7 7 7 8 8 7 6 5 6 6 6 6 5 4 4 4 5 6 7 9 10 10 11 10 9 9 9 8 7 4 2 1 1 2 3 2 1 1 3 4 5 2 2 4 8 11 14 18 18 18 19 20 21 23 25 22 16 13 15 13 9 6 4 6 10 13 14 16 17 17 16 16 18 17 14 12 12 13 15 17
9 8 7 6 6 6 7 7 7 6 5 5 5 5 5 4 4 5 6 6 6 5 3 4 4 5 6 6 6 6 7 7 8 10 9 7 6 4 3 2 1 1 2 3 2 3 3 3 3 1 3 4 7 8 10 15 17 16 18 20 20 23 25 24 18 13 13 17 16 9 4 7 11 12 14 17 17 17 16 17 19 19 17 15 13 14 14 14
11 8 6 6 6 5 6 6 6 4 3 3 2 3 4 4 4 5 4 5 6 5 3 3 4 4 4 4 3 4 4 4 8 9 8 6 5 4 2 2 2 3 3 3 3 3 1 1 3 4 3 4 4 3 3 5 8 11 15 18 19 21 23 22 19 14 12 15 17 12 6 7 11 13 15 17 18 18 17 18 20 20 18 16 15 14 14 12
11 8 5 6 6 4 5 5 3 2 2 1 1 1 3 3 4 3 3 4 5 6 4 4 4 4 3 2 2 4 4 4 7 8 8 6 5 3 2 1 2 3 2 2 1 1 2 3 2 3 5 7 6 5 3 2 2 4 9 15 18 19 19 19 18 18 15 13 15 16 12 9 11 13 14 16 19 19 18 19 20 19 17 16 16 16 14 13
10 7 5 4 5 5 5 4 2 1 1 1 1 1 1 2 3 2 2 2 4 4 4 3 3 3 4 3 2 4 5 5 5 7 8 6 4 3 3 2 1 2 3 2 3 5 7 9 10 10 12 12 11 10 8 6 5 2 3 11 17 18 18 18 16 16 16 14 13 16 16 12 11 12 13 15 18 19 19 19 19 18 17 16 16 15 14 14
9 7 6 4 5 5 4 3 0 2 1 2 2 1 1 1 2 1 1 2 2 2 3 3 1 1 2 3 3 4 4 4 5 6 6 5 4 3 2 2 1 1 3 4 6 10 12 15 16 15 14 13 11 11 11 10 7 4 2 5 12 16 17 17 14 12 14 15 13 13 15 13 12 11 12 15 18 19 19 19 18 17 16 16 15 14 14 14
9 7 7 6 5 4 3 3 2 3 2 2 2 1 1 1 2 2 3 4 3 2 2 2 1 1 2 1 1 1 2 3 4 4 3 4 3 2 1 2 1 1 2 5 8 10 11 15 17 15 11 9 8 8 9 9 9 7 4 1 6 11 13 15 13 11 12 14 13 12 13 14 13 12 13 15 18 19 19 18 17 16 16 15 15 14 14 15
9 8 9 8 6 5 4 3 2 2 2 2 1 1 1 3 4 5 5 5 3 2 1 0 1 1 1 1 1 2 2 1 2 3 2 2 1 1 1 3 3 4 4 2 7 9 9 10 14 14 10 8 6 1 3 4 6 7 6 2 3 6 9 11 11 11 11 13 13 11 12 15 15 12 13 16 18 19 18 17 16 16 15 15 14 14 14 14
10 9 9 9 8 7 6 4 2 2 2 2 1 2 4 5 5 5 4 2 1 1 2 2 2 2 2 1 0 2 3 3 3 2 2 1 1 1 2 3 3 4 6 5 1 6 9 8 10 13 12 12 10 5 4 5 6 5 5 6 5 1 3 6 8 10 11 10 10 12 14 15 15 14 14 17 20 20 17 15 15 15 15 14 13 13 13 13
12 9 9 9 8 7 7 5 3 3 3 2 2 4 6 6 4 3 1 1 1 1 1 1 1 3 3 2 2 4 5 5 4 3 2 1 0 1 2 3 4 6 6 7 5 1 6 7 9 11 11 12 13 9 5 6 8 8 8 9 9 7 3 1 4 6 10 9 8 11 14 14 15 16 16 19 22 20 16 14 14 14 15 15 14 13 14 14
Wind_Direction
333 331 329 327 327 325 321 314 298 272 258 255 253 247 239 235 235 237 238 235 233 231 230 227 225 227 228 227 221 216 212 208 207 196 191 203 209 210 208 205 206 205 206 212 211 209 206 188 164 151 147 145 135 98 76 70 68 64 52 43 18 67 178 176 172 167 162 165 163 161 162 163 164 158 156 157 154 159 167 170 170 164 160 166 171 164 153 152
335 332 328 324 322 321 319 315 307 292 268 251 248 249 245 239 235 234 235 235 233 230 229 228 224 223 224 226 224 220 214 211 203 189 200 210 211 212 210 208 206 203 204 209 208 205 202 185 161 158 154 148 133 101 86 75 68 61 51 36 19 127 160 161 170 169 161 165 162 159 162 161 161 158 157 158 154 154 166 169 166 162 161 166 171 164 155 153
331 328 325 321 318 316 315 312 308 301 287 264 246 242 244 243 239 235 233 233 232 230 227 226 225 222 221 221 222 221 216 212 200 196 209 210 208 212 210 209 207 202 202 203 202 198 192 181 170 167 160 150 131 106 94 83 72 61 57 37 27 136 154 156 165 167 162 165 163 160 160 158 158 159 160 162 159 153 164 168 160 162 166 166 168 162 154 151
324 321 318 314 311 309 308 307 305 300 292 280 259 242 239 240 242 240 236 233 231 229 227 226 224 222 221 218 218 218 216 212 203 204 210 205 204 208 204 205 206 202 201 200 198 196 191 183 176 169 159 149 129 111 97 86 78 64 61 46 53 135 149 150 154 159 163 166 166 164 162 160 160 163 165 168 166 154 156 162 158 161 167 164 164 161 150 146
319 317 313 310 307 304 301 301 300 297 292 284 271 255 241 236 238 241 240 237 232 228 226 226 224 222 221 217 214 213 212 213 207 207 207 201 204 204 199 201 202 201 201 201 198 196 191 184 178 166 155 143 126 115 102 92 85 71 63 62 81 127 142 143 148 155 163 167 171 171 166 165 165 167 171 174 169 155 153 158 158 160 168 165 163 158 147 144
317 314 312 309 306 302 298 296 295 293 289 283 275 264 252 240 234 237 240 240 236 229 224 224 224 221 219 216 213 209 208 211 209 206 205 201 203 202 198 200 202 199 199 201 199 196 191 185 176 162 150 137 125 115 104 98 90 80 72 79 93 121 138 145 150 152 157 169 178 176 169 168 169 168 170 170 164 158 156 158 156 154 166 170 166 158 147 143
315 312 310 308 304 301 298 295 293 291 288 283 277 269 260 250 239 234 236 239 238 233 225 222 223 221 218 215 211 208 206 210 210 206 203 201 202 200 198 203 203 200 198 198 199 196 190 184 170 157 148 137 126 113 104 100 94 95 93 89 96 122 143 155 159 159 163 174 181 176 170 169 169 169 167 162 159 160 160 162 159 152 164 172 170 162 150 145
315 311 308 305 302 299 297 295 293 291 289 284 279 272 265 258 247 237 233 235 237 235 228 222 220 221 219 214 210 207 205 207 209 205 202 201 200 196 199 207 204 201 199 197 199 197 190 180 166 156 149 140 129 118 113 110 107 119 110 94 103 127 152 171 177 176 176 173 177 176 175 171 168 172 166 155 157 161 163 168 170 158 164 172 171 166 157 153
315 310 306 303 300 298 296 293 292 291 290 287 283 276 269 263 253 243 235 232 234 234 231 223 219 219 218 215 210 206 204 204 205 203 202 200 198 194 197 205 204 202 200 196 198 196 190 177 165 160 155 147 136 121 117 123 125 129 116 104 115 127 148 172 178 180 182 172 173 179 180 174 169 172 166 157 160 165 167 172 177 163 164 171 172 170 164 160
315 310 306 304 303 302 301 297 295 293 291 289 286 281 274 268 259 249 240 233 231 232 231 225 219 217 217 215 209 206 205 203 200 198 200 200 196 193 195 199 200 201 200 196 196 195 189 176 168 166 161 152 136 117 117 141 144 134 123 113 119 125 140 166 172 176 181 175 175 184 185 176 171 172 166 160 163 168 171 175 179 166 163 170 173 172 169 166
315 310 307 307 308 310 309 306 305 302 298 294 290 286 279 273 265 254 244 236 232 231 231 227 220 215 215 213 209 207 205 202 198 194 197 199 196 193 195 195 193 193 196 196 195 194 188 178 174 171 164 154 135 120 127 148 150 140 136 122 129 138 140 163 172 174 178 179 179 183 187 183 175 174 169 164 165 168 173 179 179 167 165 172 174 174 172 170
315 311 309 311 312 314 316 316 316 314 309 303 296 290 281 274 268 258 248 240 233 231 229 228 221 214 212 210 207 206 204 201 197 193 195 198 197 195 195 194 189 187 188 193 195 194 190 182 177 175 168 155 140 134 139 146 146 140 138 129 149 149 137 158 173 178 181 183 182 179 187 193 185 181 175 169 170 172 177 181 178 169 168 173 175 175 175 173
318 313 312 313 314 316 320 323 325 324 319 311 302 294 284 274 267 261 254 245 237 233 230 229 224 215 210 208 207 204 202 201 198 194 194 197 198 198 198 194 188 186 184 188 194 196 192 185 183 180 168 157 151 146 145 148 148 145 141 133 153 149 139 155 170 178 184 187 186 180 188 196 191 190 182 176 177 181 181 177 175 171 170 174 175 177 178 176
320 315 313 314 314 315 319 324 327 327 326 319 310 301 292 279 270 267 260 252 242 237 233 231 227 217 210 208 207 202 200 200 198 194 194 197 198 198 200 196 191 189 186 187 191 192 189 187 188 185 172 165 161 152 152 155 154 156 152 144 154 152 148 156 167 178 184 188 187 183 190 196 194 197 191 183 184 189 184 175 175 174 171 175 176 178 180 177
321 316 314 314 313 312 314 317 320 324 326 324 320 312 303 288 276 269 261 254 242 238 235 231 229 218 210 209 204 199 199 200 198 194 193 197 198 198 199 198 196 192 190 190 188 186 184 185 189 187 179 173 166 159 159 158 158 162 163 163 161 157 159 158 162 180 186 187 187 187 195 199 199 202 196 187 186 189 185 176 176 176 173 175 178 179 179 177
321 316 316 315 310 307 307 307 311 318 323 327 329 322 315 298 277 264 254 244 230 229 231 229 226 215 207 206 201 196 196 199 198 194 192 196 198 198 197 197 197 195 194 191 185 182 180 183 188 186 184 178 168 166 164 162 165 168 178 189 174 165 169 168 166 181 190 189 189 191 197 200 204 204 197 190 188 190 187 181 178 177 175 176 179 181 179 179
322 318 320 317 309 306 303 302 306 313 322 331 336 332 325 308 281 255 237 225 219 220 223 224 220 209 203 202 199 195 194 197 197 195 196 198 198 198 197 197 196 196 197 191 182 178 178 183 187 187 188 182 173 173 170 172 177 177 186 193 187 182 176 174 177 182 187 189 189 190 193 200 208 205 198 195 193 191 189 186 183 180 178 179 182 183 181 183
325 324 325 319 310 306 303 302 307 315 325 334 339 342 338 329 311 273 239 220 218 218 218 218 210 198 196 198 195 192 192 193 194 197 201 201 198 197 196 196 196 196 196 191 183 179 180 185 188 190 192 185 181 183 177 178 188 186 187 187 186 196 193 185 186 185 182 185 191 194 196 202 208 206 204 201 198 196 192 190 188 184 181 181 184 187 185 184
329 329 329 322 312 309 308 307 314 322 330 335 343 351 353 349 341 320 268 222 216 212 208 206 197 189 191 194 190 189 189 187 190 196 204 205 201 197 195 195 196 195 196 192 186 184 185 187 190 193 193 188 186 191 188 176 183 191 189 188 185 196 208 201 199 195 187 188 197 202 206 209 208 209 211 209 207 201 194 193 191 187 185 184 186 188 187 185
332 332 331 324 317 317 315 316 327 334 337 342 349 356 356 347 338 332 313 240 218 206 201 199 192 188 190 190 186 186 184 182 186 193 202 207 204 198 196 196 196 194 196 196 191 190 190 193 196 193 192 192 189 195 201 186 171 180 185 191 196 208 233 219 208 208 196 198 204 206 209 212 208 209 213 217 219 210 198 194 193 190 188 187 188 188 186 184
335 333 332 327 321 324 325 332 341 343 347 350 352 357 1 358 348 341 319 235 224 203 196 194 186 185 188 187 184 182 180 180 187 193 197 202 202 198 197 198 197 192 193 196 195 192 193 198 198 193 193 195 192 192 198 194 181 178 186 195 204 221 232 227 213 217 207 201 206 205 209 213 208 205 210 215 218 215 204 197 193 192 192 190 189 188 185 184
336 334 333 328 325 336 341 349 351 351 357 359 359 6 16 18 23 27 35 207 232 187 181 177 173 177 183 184 182 179 178 183 189 192 196 197 193 193 197 198 196 194 191 191 192 190 194 199 197 194 196 195 195 193 183 180 182 181 189 195 202 227 211 201 201 207 206 202 208 210 209 213 207 203 208 213 217 217 210 203 197 195 195 194 192 188 185 187
336 336 336 332 0 9 357 1 360 358 6 8 9 23 35 37 47 53 68 103 112 150 154 150 152 162 175 181 180 177 178 187 192 191 191 191 187 186 194 196 192 193 193 190 191 191 196 202 198 196 199 196 197 198 187 179 180 181 180 184 201 237 192 181 180 188 198 202 209 214 213 215 209 206 209 213 218 216 211 208 202 199 198 197 195 192 189 191
336 340 348 30 45 18 10 13 7 5 14 20 30 44 49 48 47 53 78 93 101 127 134 135 142 154 170 175 174 177 181 191 193 190 186 183 181 181 186 192 189 190 194 193 194 197 202 207 202 199 201 198 200 203 197 194 192 192 186 186 203 223 200 196 166 171 194 207 206 204 210 219 213 209 207 207 213 213 212 211 205 200 199 198 198 195 192 194
342 348 28 76 52 32 27 25 20 26 38 46 55 54 50 50 49 64 87 95 106 120 127 133 142 152 161 160 165 174 179 185 185 184 183 177 176 180 181 185 187 189 193 194 195 201 206 211 207 205 206 203 203 208 205 205 209 208 200 194 200 213 224 236 189 166 185 210 207 192 199 226 218 215 213 209 211 212 213 213 209 204 200 199 200 197 194 195
349 3 79 70 55 48 44 41 43 53 58 58 58 51 49 52 58 82 95 103 112 118 127 134 139 146 142 138 151 161 164 171 175 175 175 172 172 180 183 184 186 188 192 194 196 203 207 209 206 207 212 212 209 211 210 211 217 221 214 203 211 230 238 251 242 184 185 215 209 195 202 244 226 219 218 215 213 213 216 216 213 209 204 201 203 201 197 196
357 44 88 65 63 65 64 64 63 63 59 55 54 51 54 57 73 99 106 112 112 103 124 132 125 137 135 136 142 148 162 167 167 168 173 174 174 182 187 187 187 188 193 195 198 208 210 208 206 205 211 217 217 218 214 212 220 229 223 217 227 238 244 268 266 220 217 226 200 197 208 235 244 228 221 217 214 213 217 219 217 213 208 202 202 203 200 197
16 80 88 73 78 82 80 77 70 64 61 58 56 56 62 71 91 108 111 116 96 74 116 120 112 133 138 141 136 133 166 167 164 170 173 173 175 181 192 196 192 190 197 197 198 212 215 213 214 212 211 218 220 221 220 216 222 231 230 228 230 229 244 263 241 228 233 217 190 200 207 219 251 233 222 219 220 220 216 215 217 216 211 204 201 203 202 198
52 87 89 84 88 89 84 79 70 64 64 62 61 61 67 81 93 97 91 79 65 79 111 107 114 136 143 144 134 124 153 161 166 172 170 174 180 177 184 198 198 197 206 208 205 212 214 214 219 219 220 224 222 222 224 224 226 228 225 224 226 227 204 185 203 217 219 213 207 203 201 212 248 229 218 214 219 225 219 213 215 215 213 208 203 203 202 199
78 94 94 90 91 90 83 77 68 62 63 66 69 69 73 85 87 82 75 53 54 93 127 121 119 137 150 152 137 132 144 146 153 166 170 178 184 180 176 184 193 199 213 218 217 217 213 210 214 217 221 224 223 221 221 223 226 223 213 212 214 208 175 167 184 195 200 226 229 210 206 214 247 242 226 219 215 226 221 216 216 215 213 210 206 205 204 201
94 104 101 94 93 90 81 72 64 61 68 76 80 77 76 80 74 67 68 44 44 72 149 154 139 140 159 167 152 143 145 134 137 160 176 183 183 184 185 183 184 191 207 217 222 223 220 220 220 217 217 217 217 217 214 216 217 208 204 209 191 139 143 148 157 176 201 224 272 242 227 220 229 243 233 223 217 214 233 224 219 217 215 211 207 206 206 205
105 107 104 97 94 90 81 74 70 74 84 88 90 87 82 76 60 47 47 37 35 53 140 165 165 161 171 182 182 171 164 151 149 163 180 187 188 189 189 190 185 184 201 212 220 230 228 228 228 223 219 212 209 207 207 212 210 196 192 200 186 144 147 163 156 176 226 241 325 325 220 218 239 250 250 245 243 250 260 257 220 218 217 213 207 205 206 206
109 107 103 96 93 91 85 82 79 82 88 87 87 85 80 75 53 36 39 39 41 59 128 173 183 181 168 170 183 185 178 179 182 176 182 189 193 196 196 197 192 187 198 207 212 231 235 232 231 227 223 213 206 203 204 208 207 196 190 190 186 167 153 172 175 199 242 239 245 266 218 227 253 256 251 253 257 265 263 250 228 214 213 213 209 205 205 205
113 110 105 96 92 92 90 89 85 84 85 78 72 70 72 70 51 39 44 47 59 79 116 152 162 155 144 151 169 178 179 186 193 185 185 185 188 199 206 209 208 204 211 212 211 224 227 228 228 223 222 218 210 206 204 206 210 203 196 195 196 191 181 165 186 210 200 175 208 222 222 230 241 241 245 255 263 274 272 240 217 204 204 207 209 208 205 204
121 118 110 99 92 92 93 94 94 93 87 64 30 50 69 62 42 41 42 43 56 86 112 126 136 134 125 137 161 176 180 172 171 172 171 174 181 191 206 221 231 223 223 222 213 226 233 241 230 215 216 219 214 211 206 203 211 206 199 201 203 199 197 188 194 207 183 118 162 201 225 236 242 255 257 263 272 275 282 228 200 198 201 202 206 209 206 204
128 126 118 104 97 96 92 90 91 89 77 23 19 70 73 62 48 45 38 36 47 85 115 120 128 130 122 125 147 169 170 153 151 148 141 154 170 167 182 214 234 227 227 226 212 211 240 236 199 199 209 211 209 212 210 206 208 200 198 204 201 189 192 192 189 198 195 187 188 197 230 243 248 266 264 259 273 274 275 223 191 196 203 201 203 207 208 207
131 129 124 112 105 103 96 89 78 70 52 351 79 86 77 67 59 49 39 33 37 61 139 144 129 128 136 131 138 150 143 144 151 142 129 131 142 147 159 152 105 202 222 226 230 242 265 247 203 184 206 208 200 203 208 210 211 203 203 206 199 191 203 208 190 177 195 219 204 203 230 244 239 251 257 255 268 267 262 218 192 197 202 198 198 200 205 207
134 132 129 124 115 109 105 99 87 82 70 62 92 89 78 71 62 50 46 39 37 52 156 163 129 115 143 146 144 144 137 142 154 145 131 126 119 128 137 123 100 110 190 214 226 232 266 265 224 194 210 211 203 202 208 210 210 211 211 206 199 197 202 200 195 184 197 206 187 210 232 243 233 232 243 253 261 259 247 212 196 200 199 193 193 195 198 201
137 132 129 130 122 116 119 117 106 101 95 85 89 87 77 70 58 47 45 38 42 64 106 137 124 114 138 149 149 146 142 148 156 153 142 134 124 126 114 93 105 105 125 184 205 213 232 286 225 196 207 211 205 206 211 211 208 211 217 208 204 207 200 196 203 208 189 197 203 202 224 241 235 231 236 246 253 257 236 209 201 202 197 191 193 196 198 200
140 132 129 130 125 125 132 131 131 138 91 83 86 86 77 67 55 46 40 37 48 64 74 95 118 119 128 144 151 148 145 151 158 157 153 148 139 139 120 81 86 104 118 157 176 227 246 262 263 236 228 212 206 207 211 214 210 209 214 212 208 209 200 196 208 213 199 174 198 209 208 226 232 230 229 235 242 248 233 210 204 205 201 196 196 198 200 202
141 134 133 132 127 128 133 139 142 120 92 88 87 84 77 67 58 48 41 42 51 66 72 81 108 117 125 137 143 148 147 152 163 162 156 161 154 140 138 104 74 88 103 154 172 239 254 261 286 293 275 219 211 209 211 215 217 211 213 218 215 208 199 195 206 210 207 196 187 214 223 212 223 227 224 227 233 237 232 216 206 204 205 201 197 199 200 203
145 139 141 139 137 135 132 136 129 104 96 93 85 79 74 68 66 57 47 46 51 73 84 96 111 112 119 128 133 141 144 148 164 167 162 169 164 135 132 148 53 42 37 133 189 240 255 277 302 299 264 227 219 213 209 211 215 213 214 221 223 214 206 207 211 201 201 208 202 215 233 219 218 220 219 224 228 230 231 220 205 200 202 199 195 198 201 204
158 152 152 151 150 145 137 130 116 102 98 91 80 70 63 64 67 59 47 46 58 79 89 108 124 119 117 121 126 135 138 139 152 157 158 166 173 174 163 170 326 4 356 325 276 283 258 271 304 304 215 215 207 202 202 200 201 205 210 216 220 215 209 213 221 210 202 204 197 198 224 221 218 218 216 220 224 227 228 217 204 198 195 193 192 196 202 207
165 158 159 163 157 147 138 123 108 100 97 94 84 58 46 60 67 53 39 44 58 74 92 106 116 126 132 131 136 144 140 138 146 151 155 159 164 181 201 232 273 301 329 322 313 312 277 259 282 259 139 145 164 173 183 189 191 194 200 207 214 215 212 215 222 218 207 206 204 207 220 213 215 217 215 216 218 222 223 213 205 202 196 191 192 196 201 205
167 162 167 173 164 150 142 126 105 95 98 99 91 50 41 54 57 44 37 45 56 63 93 120 109 111 132 143 159 176 173 157 154 155 155 151 144 152 178 206 236 265 290 298 300 307 301 220 254 244 186 138 141 143 142 181 188 189 197 203 208 213 214 216 218 217 215 211 209 214 213 199 210 217 217 216 216 216 216 210 207 205 198 194 196 200 201 200
174 176 184 184 176 162 147 135 114 96 103 66 40 92 65 46 36 36 51 63 60 58 70 106 107 82 85 128 185 193 181 162 160 158 152 145 139 136 135 174 213 231 242 268 291 240 177 138 151 189 149 106 80 71 63 66 133 176 200 202 202 206 210 213 216 218 220 214 211 217 220 214 216 221 222 218 214 213 213 210 207 205 199 197 201 203 202 200
188 195 201 194 177 165 149 135 114 84 125 312 328 134 103 33 25 46 81 59 49 45 44 74 105 79 70 91 131 156 151 146 154 154 148 140 134 123 91 72 230 213 186 151 131 150 147 126 116 120 119 105 84 72 67 65 77 94 194 197 197 198 198 204 214 221 219 216 215 218 222 228 228 223 221 217 211 211 212 209 207 204 202 202 203 203 203 203
202 207 208 199 175 171 170 160 81 358 332 293 308 258 185 351 7 40 55 12 6 9 18 38 92 123 104 95 90 107 122 130 141 143 139 135 132 128 99 63 7 206 179 163 150 146 137 123 115 109 105 104 94 78 67 60 64 67 90 189 193 191 190 197 209 219 217 217 225 224 219 224 230 224 218 214 210 208 208 206 205 203 203 204 203 202 202 204
208 211 211 208 197 193 200 210 266 331 344 320 293 227 208 278 294 299 306 307 306 304 346 22 41 180 170 160 140 125 110 114 127 127 129 136 132 130 97 55 53 89 157 175 169 158 144 130 125 122 118 115 106 82 65 60 64 67 54 165 193 190 193 198 205 214 211 212 222 226 218 219 223 224 218 212 210 208 205 202 200 199 201 202 200 201 204 206
213 215 214 213 216 215 211 216 249 320 349 337 306 247 300 307 306 311 317 315 302 266 234 66 67 104 144 180 212 217 221 189 141 118 114 128 131 124 57 47 58 48 41 135 176 177 172 150 142 149 163 173 177 216 352 25 55 62 54 54 184 195 197 199 207 214 209 209 214 212 211 215 216 216 213 207 209 211 206 197 191 192 195 197 196 197 203 208
215 215 216 218 221 220 217 217 229 280 309 299 303 338 331 319 317 326 339 0 70 135 147 130 95 72 45 22 176 198 193 187 179 151 133 130 103 73 8 13 16 11 14 19 126 187 199 192 170 167 175 189 206 241 307 322 320 324 353 23 42 77 180 189 202 208 207 213 217 209 209 215 214 211 206 202 206 210 203 187 180 186 192 194 196 199 206 215
216 214 216 221 223 219 215 215 230 271 282 266 301 331 332 326 320 324 347 118 152 170 182 183 103 72 55 52 138 159 159 161 167 165 167 183 179 334 333 337 339 342 351 3 15 189 213 218 201 191 188 192 202 216 256 308 317 303 312 347 11 17 4 236 201 210 214 216 219 217 217 220 220 213 204 199 201 200 188 175 180 193 200 200 201 204 208 212
Height
3143 3142 3141 3141 3141 3141 3141 3141 3141 3141 3141 3141 3141 3141 3142 3142 3142 3143 3143 3144 3145 3145 3146 3147 3148 3148 3149 3150 3150 3151 3152 3153 3154 3156 3157 3156 3156 3157 3159 3161 3163 3165 3166 3167 3168 3170 3170 3171 3172 3172 3173 3174 3174 3174 3174 3173 3173 3172 3172 3171 3171 3171 3172 3174 3175 3176 3177 3179 3181 3183 3185 3186 3187 3187 3189 3191 3192 3194 3196 3197 3199 3200 3202 3203 3205 3206 3207 3207
3142 3141 3141 3140 3140 3139 3139 3139 3139 3140 3140 3140 3140 3140 3140 3140 3140 3141 3142 3142 3143 3144 3145 3146 3146 3147 3148 3149 3149 3150 3151 3152 3153 3155 3155 3154 3156 3158 3159 3160 3162 3164 3165 3167 3168 3170 3171 3172 3172 3172 3173 3174 3174 3175 3174 3174 3174 3173 3172 3172 3171 3171 3171 3173 3176 3177 3179 3181 3182 3184 3185 3187 3188 3189 3190 3192 3193 3195 3197 3198 3199 3201 3202 3203 3205 3207 3208 3209
3141 3141 3140 3140 3139 3138 3138 3138 3138 3138 3138 3138 3138 3138 3139 3139 3139 3139 3140 3140 3142 3143 3143 3144 3145 3146 3147 3147 3148 3149 3150 3151 3152 3153 3153 3154 3156 3157 3158 3160 3162 3164 3165 3166 3168 3169 3170 3172 3172 3173 3174 3174 3175 3175 3175 3175 3174 3174 3173 3173 3171 3170 3171 3173 3175 3178 3180 3182 3183 3185 3186 3188 3190 3191 3192 3194 3195 3196 3198 3199 3200 3201 3203 3204 3206 3207 3208 3210
3140 3140 3139 3139 3138 3137 3137 3137 3136 3136 3137 3137 3137 3137 3137 3137 3137 3137 3138 3139 3140 3141 3142 3143 3143 3144 3145 3146 3147 3148 3149 3150 3151 3152 3152 3154 3155 3156 3158 3159 3161 3163 3164 3165 3166 3168 3169 3171 3172 3173 3174 3175 3175 3175 3175 3175 3175 3175 3174 3174 3172 3171 3173 3174 3177 3179 3181 3183 3185 3186 3187 3189 3191 3192 3194 3195 3196 3197 3199 3201 3202 3203 3204 3205 3207 3208 3209 3211
3139 3139 3138 3138 3137 3137 3136 3136 3135 3135 3135 3135 3135 3135 3136 3136 3136 3136 3136 3137 3138 3139 3140 3141 3142 3143 3144 3145 3146 3147 3148 3149 3150 3150 3151 3153 3154 3155 3157 3158 3159 3161 3163 3164 3165 3167 3169 3171 3172 3173 3174 3175 3175 3176 3176 3176 3176 3176 3175 3175 3174 3174 3175 3177 3179 3181 3182 3184 3186 3187 3189 3190 3191 3193 3195 3196 3197 3198 3200 3201 3203 3204 3205 3207 3208 3210 3211 3212
3138 3138 3137 3137 3136 3136 3135 3135 3134 3134 3134 3134 3134 3134 3134 3134 3135 3135 3135 3135 3136 3137 3138 3139 3140 3141 3142 3144 3145 3146 3147 3148 3148 3149 3150 3152 3153 3155 3156 3157 3158 3160 3162 3163 3165 3167 3168 3170 3172 3173 3174 3175 3176 3176 3177 3177 3177 3177 3176 3176 3176 3177 3178 3179 3181 3182 3184 3185 3187 3188 3190 3191 3192 3194 3195 3197 3198 3199 3201 3202 3203 3204 3206 3208 3210 3211 3212 3213
3137 3137 3136 3136 3135 3134 3134 3134 3133 3133 3133 3132 3132 3132 3133 3133 3133 3134 3134 3134 3134 3135 3136 3137 3138 3139 3141 3142 3143 3144 3145 3146 3147 3148 3149 3151 3152 3154 3155 3156 3157 3159 3161 3163 3165 3166 3168 3170 3172 3173 3175 3176 3176 3177 3178 3178 3178 3178 3177 3177 3178 3179 3180 3181 3182 3183 3185 3186 3188 3189 3191 3192 3193 3194 3195 3197 3198 3199 3201 3202 3204 3205 3207 3209 3211 3213 3214 3215
3136 3135 3135 3134 3134 3133 3133 3132 3132 3132 3131 3131 3131 3131 3131 3131 3132 3132 3133 3133 3133 3133 3134 3135 3137 3138 3139 3140 3142 3143 3144 3145 3146 3147 3148 3149 3151 3153 3155 3156 3157 3159 3160 3162 3164 3166 3168 3170 3172 3173 3175 3176 3177 3177 3178 3178 3178 3178 3177 3178 3179 3180 3182 3183 3183 3184 3185 3186 3188 3190 3191 3193 3194 3195 3196 3198 3199 3200 3202 3203 3204 3205 3207 3209 3212 3214 3215 3216
3135 3134 3133 3133 3133 3132 3132 3131 3131 3131 3130 3130 3130 3129 3129 3130 3130 3131 3131 3131 3131 3132 3132 3134 3135 3136 3138 3139 3140 3142 3142 3143 3145 3146 3147 3149 3150 3152 3153 3155 3157 3158 3160 3162 3163 3166 3168 3170 3172 3173 3175 3176 3177 3178 3178 3178 3178 3177 3178 3179 3180 3181 3182 3183 3184 3185 3186 3187 3189 3190 3192 3193 3194 3195 3196 3198 3199 3200 3202 3204 3205 3206 3208 3210 3212 3214 3216 3217
3134 3133 3132 3132 3131 3131 3131 3130 3130 3129 3129 3129 3128 3128 3128 3128 3129 3129 3130 3130 3130 3130 3131 3132 3133 3135 3136 3138 3139 3140 3141 3142 3144 3145 3146 3148 3149 3151 3152 3154 3156 3158 3159 3161 3163 3165 3168 3170 3172 3173 3174 3176 3177 3178 3178 3178 3178 3178 3178 3180 3180 3181 3182 3183 3184 3185 3186 3188 3189 3190 3192 3193 3194 3195 3197 3198 3199 3201 3202 3204 3206 3207 3208 3211 3213 3215 3216 3218
3133 3132 3131 3131 3130 3130 3130 3129 3129 3128 3128 3127 3127 3127 3127 3127 3127 3128 3128 3128 3129 3129 3129 3130 3131 3133 3134 3136 3138 3139 3140 3141 3142 3144 3145 3147 3148 3150 3151 3153 3156 3157 3159 3160 3162 3165 3167 3170 3171 3173 3174 3176 3177 3178 3178 3177 3178 3179 3179 3180 3181 3181 3182 3183 3184 3185 3186 3187 3189 3190 3192 3193 3194 3196 3197 3199 3200 3201 3203 3204 3206 3208 3209 3211 3213 3215 3216 3218
3132 3131 3131 3130 3130 3129 3129 3128 3128 3127 3127 3126 3125 3125 3125 3125 3126 3126 3127 3127 3127 3128 3128 3129 3130 3131 3133 3135 3136 3137 3138 3140 3142 3143 3144 3146 3147 3149 3150 3152 3154 3156 3158 3160 3162 3164 3167 3169 3171 3172 3174 3176 3177 3177 3177 3177 3178 3179 3180 3181 3182 3182 3182 3183 3184 3185 3186 3187 3188 3190 3192 3193 3194 3196 3197 3199 3200 3201 3203 3205 3206 3208 3209 3211 3213 3215 3216 3218
3131 3130 3130 3129 3129 3128 3128 3128 3127 3126 3125 3125 3124 3124 3124 3124 3124 3125 3125 3126 3126 3127 3127 3128 3129 3130 3132 3133 3134 3136 3138 3139 3141 3142 3143 3145 3147 3148 3149 3151 3153 3155 3156 3158 3160 3163 3166 3169 3171 3172 3174 3176 3177 3177 3177 3178 3178 3179 3180 3182 3182 3182 3182 3183 3185 3185 3186 3188 3188 3189 3191 3192 3193 3195 3197 3199 3200 3201 3203 3204 3206 3208 3209 3211 3213 3215 3217 3218
3131 3130 3129 3128 3128 3127 3127 3127 3126 3125 3124 3124 3123 3123 3122 3123 3123 3124 3124 3125 3125 3126 3126 3127 3128 3129 3131 3132 3133 3135 3137 3138 3140 3141 3142 3144 3146 3147 3149 3151 3152 3154 3155 3156 3158 3161 3164 3168 3170 3172 3174 3175 3176 3177 3177 3178 3179 3179 3180 3182 3183 3183 3183 3183 3185 3186 3187 3188 3188 3189 3190 3191 3193 3195 3197 3199 3200 3202 3203 3204 3206 3208 3209 3211 3213 3215 3217 3218
3130 3129 3128 3128 3127 3127 3126 3126 3125 3124 3124 3123 3122 3122 3121 3122 3122 3123 3123 3124 3124 3125 3126 3126 3127 3128 3130 3131 3133 3134 3136 3137 3138 3140 3141 3142 3144 3146 3148 3150 3152 3153 3154 3156 3157 3160 3163 3166 3168 3171 3173 3174 3176 3177 3178 3179 3179 3179 3180 3182 3183 3183 3183 3184 3185 3186 3187 3187 3188 3190 3191 3191 3193 3195 3197 3198 3200 3202 3203 3205 3206 3208 3209 3211 3213 3215 3217 3218
3129 3128 3128 3127 3126 3126 3126 3125 3125 3124 3123 3122 3121 3121 3121 3121 3121 3121 3122 3122 3123 3124 3124 3125 3126 3128 3129 3130 3132 3133 3134 3135 3136 3138 3140 3141 3142 3144 3147 3149 3151 3153 3154 3155 3158 3160 3162 3165 3167 3170 3172 3174 3175 3176 3178 3179 3179 3179 3180 3181 3182 3183 3184 3184 3185 3186 3187 3188 3189 3190 3190 3191 3193 3194 3196 3198 3200 3202 3203 3205 3206 3208 3209 3211 3213 3215 3216 3218
3129 3128 3127 3127 3126 3125 3125 3124 3124 3123 3122 3121 3121 3120 3120 3120 3120 3121 3121 3121 3122 3122 3123 3124 3125 3127 3128 3129 3130 3132 3133 3134 3136 3137 3139 3140 3141 3143 3146 3148 3150 3152 3154 3155 3158 3160 3162 3164 3167 3169 3171 3173 3175 3176 3177 3178 3179 3179 3179 3181 3182 3183 3184 3185 3185 3186 3187 3188 3189 3190 3190 3191 3192 3194 3196 3198 3199 3201 3203 3205 3206 3208 3209 3211 3213 3215 3216 3218
3128 3127 3127 3126 3125 3125 3124 3124 3123 3122 3121 3121 3120 3120 3120 3120 3120 3120 3120 3121 3121 3121 3122 3123 3124 3126 3127 3128 3129 3131 3132 3134 3135 3137 3138 3139 3141 3143 3145 3148 3150 3151 3153 3155 3157 3159 3161 3163 3166 3168 3170 3172 3174 3175 3176 3177 3178 3178 3179 3180 3182 3183 3184 3185 3185 3185 3186 3187 3188 3189 3190 3191 3193 3194 3195 3197 3199 3201 3203 3205 3206 3208 3209 3211 3212 3214 3216 3218
3128 3127 3126 3126 3125 3124 3124 3123 3123 3122 3121 3120 3120 3120 3119 3119 3119 3120 3120 3120 3120 3121 3122 3122 3123 3125 3126 3127 3128 3130 3132 3134 3135 3137 3138 3139 3141 3143 3145 3147 3149 3151 3153 3155 3157 3158 3160 3163 3165 3167 3169 3171 3173 3174 3175 3177 3178 3179 3179 3180 3182 3183 3184 3184 3185 3185 3186 3187 3188 3188 3190 3191 3193 3194 3195 3197 3198 3200 3202 3204 3206 3207 3209 3210 3212 3214 3216 3217
3127 3126 3126 3125 3124 3124 3123 3123 3122 3121 3120 3120 3120 3119 3119 3119 3119 3119 3119 3119 3119 3120 3121 3122 3123 3124 3125 3126 3128 3130 3132 3134 3135 3136 3138 3139 3140 3142 3144 3146 3148 3150 3153 3155 3156 3158 3160 3162 3163 3166 3169 3171 3173 3174 3175 3176 3177 3178 3179 3180 3181 3182 3183 3183 3184 3185 3186 3187 3187 3188 3190 3191 3192 3193 3195 3196 3197 3199 3200 3202 3204 3206 3208 3209 3211 3213 3215 3217
3127 3126 3125 3124 3124 3123 3123 3122 3122 3121 3120 3120 3119 3119 3119 3118 3118 3118 3118 3118 3118 3119 3120 3121 3123 3124 3125 3126 3128 3130 3132 3134 3135 3136 3137 3138 3140 3142 3144 3145 3147 3149 3151 3154 3156 3158 3160 3161 3163 3166 3169 3170 3172 3174 3175 3176 3177 3178 3178 3180 3180 3181 3182 3183 3183 3185 3185 3186 3187 3188 3189 3190 3191 3193 3194 3195 3196 3198 3200 3201 3203 3205 3207 3209 3211 3213 3215 3216
3126 3126 3125 3124 3123 3123 3123 3122 3121 3121 3120 3120 3119 3118 3118 3118 3118 3118 3118 3118 3118 3119 3120 3121 3123 3124 3125 3126 3128 3130 3132 3134 3135 3136 3137 3138 3140 3142 3143 3145 3147 3149 3150 3153 3156 3158 3160 3160 3163 3166 3168 3170 3172 3173 3175 3176 3177 3178 3178 3180 3181 3181 3181 3182 3183 3184 3185 3186 3187 3187 3188 3189 3190 3191 3193 3194 3195 3198 3200 3201 3203 3204 3206 3208 3210 3212 3214 3215
3126 3125 3125 3124 3123 3123 3123 3122 3122 3121 3120 3119 3119 3119 3118 3118 3118 3118 3118 3118 3119 3119 3120 3121 3123 3124 3126 3127 3129 3131 3132 3133 3134 3136 3137 3138 3140 3141 3143 3145 3147 3148 3150 3153 3155 3157 3159 3160 3162 3165 3167 3169 3171 3172 3174 3175 3177 3177 3178 3180 3182 3181 3182 3182 3182 3183 3184 3185 3186 3187 3188 3188 3189 3190 3191 3193 3195 3196 3198 3200 3201 3203 3205 3207 3209 3211 3213 3214
3126 3125 3125 3124 3124 3123 3123 3122 3122 3121 3120 3120 3120 3119 3119 3119 3118 3118 3118 3118 3119 3120 3121 3123 3124 3125 3127 3128 3129 3131 3132 3134 3135 3136 3137 3139 3140 3141 3143 3145 3147 3149 3151 3152 3155 3157 3159 3160 3162 3164 3166 3168 3170 3172 3173 3175 3176 3177 3178 3180 3181 3181 3182 3182 3182 3183 3184 3184 3185 3186 3187 3188 3188 3189 3190 3191 3193 3194 3196 3198 3200 3201 3204 3206 3208 3210 3212 3214
3126 3126 3125 3125 3124 3124 3123 3123 3122 3122 3121 3121 3121 3121 3120 3119 3119 3119 3119 3119 3120 3122 3123 3124 3125 3126 3127 3128 3129 3131 3133 3134 3135 3137 3138 3139 3141 3142 3143 3145 3147 3149 3150 3152 3155 3157 3158 3159 3161 3164 3165 3167 3169 3171 3172 3174 3176 3177 3178 3179 3180 3181 3182 3181 3182 3182 3183 3184 3184 3185 3186 3186 3186 3187 3188 3190 3191 3192 3194 3196 3198 3200 3202 3204 3206 3208 3210 3212
3126 3126 3126 3125 3125 3124 3124 3123 3123 3123 3122 3122 3122 3121 3121 3121 3120 3120 3120 3120 3122 3123 3124 3125 3126 3127 3128 3129 3130 3131 3133 3135 3136 3137 3139 3140 3141 3142 3144 3145 3147 3149 3150 3152 3155 3156 3157 3159 3161 3163 3164 3166 3168 3169 3171 3173 3175 3176 3178 3179 3180 3181 3181 3181 3181 3182 3183 3183 3183 3184 3185 3185 3185 3185 3186 3188 3190 3191 3193 3194 3196 3198 3200 3202 3204 3206 3209 3211
3127 3127 3127 3126 3125 3125 3125 3124 3124 3124 3123 3123 3123 3122 3122 3122 3121 3121 3121 3122 3123 3125 3125 3126 3127 3127 3128 3130 3131 3132 3133 3135 3136 3138 3139 3140 3142 3143 3144 3145 3147 3149 3150 3152 3154 3155 3156 3158 3161 3162 3164 3165 3167 3168 3170 3172 3174 3176 3177 3178 3179 3180 3180 3181 3181 3182 3182 3182 3183 3183 3184 3184 3184 3184 3185 3186 3188 3189 3190 3192 3194 3196 3198 3201 3203 3205 3207 3209
3128 3128 3127 3127 3126 3126 3126 3126 3125 3125 3124 3124 3123 3122 3122 3122 3122 3122 3122 3123 3125 3126 3126 3127 3127 3128 3129 3130 3132 3133 3133 3135 3137 3138 3139 3141 3142 3143 3145 3146 3147 3149 3150 3152 3154 3154 3155 3158 3160 3161 3163 3164 3165 3167 3169 3172 3174 3175 3176 3178 3179 3179 3180 3180 3181 3182 3182 3182 3183 3183 3184 3184 3183 3182 3184 3185 3186 3187 3188 3189 3191 3194 3196 3199 3202 3204 3206 3208
3128 3128 3128 3128 3127 3127 3127 3127 3126 3126 3125 3125 3124 3123 3123 3123 3123 3123 3123 3125 3127 3127 3127 3128 3128 3129 3130 3131 3132 3133 3134 3136 3137 3138 3140 3141 3142 3144 3145 3146 3148 3149 3150 3152 3154 3154 3156 3158 3159 3160 3162 3163 3165 3167 3169 3171 3173 3174 3176 3177 3178 3178 3179 3180 3181 3181 3182 3182 3182 3182 3183 3183 3181 3181 3182 3183 3184 3184 3186 3188 3190 3192 3195 3197 3200 3202 3205 3207
3129 3129 3129 3129 3128 3128 3128 3128 3127 3127 3126 3125 3125 3124 3124 3124 3124 3124 3124 3127 3128 3128 3128 3129 3129 3130 3131 3132 3133 3134 3135 3136 3137 3138 3140 3141 3142 3144 3145 3146 3147 3149 3150 3151 3153 3154 3155 3157 3158 3159 3160 3162 3164 3166 3167 3170 3171 3173 3175 3176 3177 3178 3178 3180 3181 3182 3182 3181 3180 3181 3182 3183 3181 3179 3180 3181 3182 3182 3184 3187 3189 3190 3192 3195 3198 3201 3203 3206
3130 3130 3130 3130 3129 3129 3129 3128 3128 3127 3127 3126 3126 3126 3125 3125 3125 3125 3127 3129 3129 3129 3129 3130 3130 3131 3132 3133 3134 3135 3136 3137 3137 3139 3140 3141 3142 3144 3145 3146 3147 3148 3150 3151 3152 3153 3154 3155 3156 3158 3159 3161 3163 3165 3166 3168 3169 3171 3174 3175 3176 3178 3179 3181 3181 3183 3182 3180 3179 3180 3181 3183 3181 3179 3179 3179 3180 3182 3183 3185 3187 3189 3190 3192 3195 3198 3201 3204
3131 3131 3130 3130 3130 3130 3130 3129 3129 3128 3128 3128 3127 3127 3127 3126 3126 3127 3129 3130 3130 3130 3130 3130 3131 3132 3133 3133 3134 3135 3136 3137 3138 3139 3140 3141 3142 3144 3145 3146 3147 3148 3150 3151 3152 3153 3153 3154 3155 3157 3158 3160 3162 3164 3165 3166 3167 3170 3172 3173 3175 3177 3179 3181 3181 3182 3181 3179 3179 3180 3180 3181 3179 3178 3178 3179 3180 3181 3182 3184 3185 3187 3189 3191 3193 3196 3199 3202
3131 3131 3131 3131 3131 3131 3131 3130 3130 3129 3129 3129 3128 3128 3127 3127 3129 3131 3131 3130 3130 3130 3130 3130 3131 3132 3133 3133 3134 3135 3136 3137 3138 3139 3140 3141 3142 3144 3145 3146 3147 3148 3149 3150 3151 3152 3153 3153 3154 3155 3157 3158 3160 3162 3163 3164 3166 3168 3169 3171 3173 3174 3179 3183 3182 3182 3180 3178 3179 3180 3180 3179 3177 3176 3177 3177 3178 3180 3180 3182 3184 3185 3187 3189 3192 3195 3197 3200
3132 3132 3132 3132 3132 3132 3131 3131 3131 3130 3130 3130 3130 3130 3129 3129 3132 3132 3131 3131 3131 3130 3130 3131 3131 3132 3133 3133 3134 3135 3136 3137 3138 3138 3140 3141 3143 3144 3145 3146 3147 3147 3148 3149 3151 3151 3151 3151 3152 3154 3155 3156 3158 3160 3162 3163 3165 3167 3168 3170 3171 3171 3175 3179 3180 3179 3177 3177 3178 3180 3179 3177 3175 3175 3175 3176 3177 3178 3179 3180 3182 3184 3185 3187 3190 3193 3195 3198
3133 3133 3133 3133 3133 3133 3132 3132 3132 3131 3131 3131 3131 3131 3130 3132 3133 3133 3132 3132 3131 3131 3131 3131 3132 3133 3133 3134 3134 3135 3136 3137 3137 3138 3140 3141 3143 3144 3145 3145 3146 3147 3148 3149 3150 3150 3151 3150 3150 3152 3153 3155 3157 3159 3161 3163 3164 3165 3167 3169 3169 3170 3172 3174 3175 3175 3175 3176 3177 3178 3177 3175 3174 3174 3174 3175 3176 3177 3178 3178 3180 3182 3183 3184 3187 3190 3193 3196
3133 3133 3134 3134 3134 3133 3133 3132 3132 3132 3132 3132 3132 3132 3133 3134 3134 3134 3133 3133 3132 3132 3132 3132 3133 3133 3134 3135 3135 3136 3136 3137 3138 3139 3140 3142 3143 3144 3145 3145 3146 3146 3147 3148 3149 3150 3150 3150 3149 3150 3152 3154 3156 3158 3159 3161 3162 3163 3165 3165 3167 3170 3171 3172 3173 3174 3175 3175 3176 3176 3175 3173 3174 3174 3174 3175 3175 3176 3177 3177 3179 3181 3182 3184 3186 3189 3192 3195
3134 3134 3134 3134 3134 3134 3134 3133 3133 3133 3133 3133 3133 3134 3134 3135 3135 3135 3134 3133 3133 3133 3132 3133 3133 3134 3134 3135 3136 3136 3137 3138 3138 3139 3141 3142 3143 3144 3145 3145 3145 3146 3146 3148 3149 3149 3150 3149 3149 3150 3151 3152 3154 3156 3158 3160 3161 3162 3162 3163 3167 3170 3170 3171 3172 3173 3174 3174 3173 3174 3174 3173 3173 3173 3173 3174 3174 3174 3176 3177 3178 3180 3181 3183 3186 3189 3192 3194
3135 3135 3135 3135 3135 3135 3135 3135 3134 3134 3134 3134 3134 3135 3136 3136 3136 3135 3135 3134 3134 3133 3133 3133 3133 3134 3135 3135 3136 3137 3137 3138 3139 3140 3141 3142 3144 3145 3145 3145 3145 3145 3146 3147 3148 3149 3149 3149 3148 3149 3150 3151 3153 3155 3156 3157 3159 3160 3161 3163 3165 3167 3167 3169 3170 3171 3172 3173 3172 3172 3172 3171 3171 3172 3172 3173 3173 3174 3175 3176 3177 3179 3180 3182 3185 3188 3190 3193
3135 3136 3136 3136 3136 3135 3135 3135 3135 3135 3135 3134 3135 3136 3136 3136 3136 3136 3136 3135 3134 3134 3133 3133 3133 3134 3135 3135 3136 3137 3137 3138 3139 3140 3141 3143 3144 3145 3145 3145 3145 3145 3146 3146 3147 3148 3148 3148 3148 3148 3149 3149 3151 3152 3153 3154 3156 3158 3160 3161 3163 3163 3164 3166 3167 3167 3168 3171 3171 3171 3171 3170 3169 3170 3172 3172 3173 3174 3175 3176 3177 3178 3180 3182 3184 3186 3188 3191
3136 3136 3137 3137 3136 3136 3136 3136 3136 3136 3136 3136 3136 3137 3137 3137 3137 3137 3136 3136 3135 3135 3134 3134 3134 3134 3135 3136 3136 3137 3138 3139 3139 3140 3141 3143 3144 3145 3145 3146 3146 3146 3146 3146 3147 3148 3148 3148 3148 3147 3148 3148 3149 3149 3151 3153 3154 3156 3158 3159 3160 3161 3163 3164 3165 3165 3166 3167 3168 3168 3168 3167 3167 3169 3170 3171 3172 3173 3174 3175 3176 3177 3179 3181 3183 3185 3187 3189
3137 3137 3137 3137 3137 3137 3137 3137 3137 3137 3137 3137 3137 3138 3138 3138 3138 3138 3137 3137 3136 3136 3136 3135 3135 3135 3135 3136 3137 3137 3138 3139 3140 3141 3142 3143 3144 3145 3145 3146 3146 3146 3146 3146 3147 3147 3147 3147 3147 3147 3147 3147 3147 3147 3149 3151 3153 3155 3156 3157 3158 3160 3161 3162 3163 3164 3165 3165 3165 3165 3165 3165 3166 3168 3169 3170 3171 3172 3174 3175 3175 3177 3178 3180 3182 3184 3186 3187
3137 3137 3138 3137 3137 3137 3137 3138 3138 3138 3138 3138 3138 3139 3139 3139 3139 3139 3138 3138 3137 3137 3137 3137 3136 3136 3137 3137 3137 3138 3138 3139 3140 3141 3142 3143 3144 3145 3145 3146 3146 3146 3146 3146 3146 3147 3147 3147 3147 3146 3146 3145 3146 3146 3148 3150 3152 3153 3155 3156 3157 3158 3159 3159 3159 3161 3163 3164 3164 3164 3164 3163 3165 3166 3167 3169 3170 3171 3173 3174 3175 3176 3178 3180 3182 3183 3185 3186
3138 3138 3138 3138 3138 3138 3138 3138 3139 3139 3139 3139 3139 3140 3140 3140 3139 3139 3139 3139 3138 3138 3138 3137 3137 3137 3138 3138 3138 3139 3139 3140 3141 3141 3142 3143 3144 3144 3145 3145 3146 3146 3146 3146 3146 3146 3146 3146 3146 3145 3145 3145 3145 3146 3147 3149 3150 3152 3153 3154 3155 3155 3157 3158 3158 3159 3162 3162 3163 3164 3163 3162 3164 3165 3166 3168 3169 3170 3172 3173 3174 3176 3178 3179 3181 3182 3184 3186
3138 3138 3138 3138 3138 3139 3139 3139 3139 3140 3140 3140 3140 3140 3140 3140 3140 3140 3140 3139 3139 3139 3138 3138 3138 3138 3138 3139 3139 3140 3140 3141 3141 3142 3142 3143 3143 3144 3145 3145 3145 3146 3146 3146 3146 3146 3146 3146 3145 3145 3145 3145 3145 3146 3147 3148 3149 3150 3150 3151 3153 3154 3155 3157 3158 3159 3159 3159 3161 3162 3161 3161 3163 3164 3165 3166 3168 3169 3170 3172 3173 3175 3177 3179 3180 3182 3184 3186
3138 3138 3138 3138 3139 3139 3139 3140 3140 3140 3140 3140 3141 3141 3141 3141 3141 3140 3140 3140 3140 3140 3139 3139 3139 3139 3139 3139 3140 3140 3140 3141 3141 3142 3142 3143 3143 3144 3144 3145 3145 3145 3145 3145 3145 3145 3145 3145 3145 3144 3144 3144 3145 3146 3147 3147 3147 3148 3149 3150 3151 3153 3154 3155 3156 3157 3157 3158 3159 3160 3159 3160 3162 3163 3164 3165 3166 3168 3169 3171 3172 3174 3176 3178 3180 3181 3183 3186
3137 3138 3138 3139 3139 3139 3139 3140 3140 3141 3141 3141 3141 3141 3141 3141 3141 3141 3141 3140 3140 3140 3140 3140 3140 3140 3140 3140 3140 3141 3141 3141 3142 3142 3143 3143 3144 3144 3144 3145 3145 3145 3145 3145 3145 3145 3145 3145 3145 3144 3144 3144 3146 3146 3147 3147 3147 3147 3148 3149 3150 3151 3153 3154 3155 3155 3155 3157 3158 3158 3159 3160 3161 3162 3163 3164 3165 3166 3168 3170 3171 3173 3175 3177 3179 3181 3183 3185
3137 3138 3138 3139 3139 3139 3140 3140 3141 3141 3141 3141 3141 3141 3141 3142 3141 3141 3141 3141 3141 3141 3141 3141 3141 3141 3141 3141 3141 3141 3142 3142 3142 3143 3144 3144 3144 3144 3145 3145 3145 3145 3145 3145 3145 3145 3144 3144 3145 3144 3144 3145 3146 3147 3147 3147 3147 3147 3148 3148 3149 3150 3151 3152 3153 3153 3154 3156 3156 3157 3159 3160 3160 3161 3162 3163 3164 3165 3167 3169 3171 3173 3175 3176 3178 3180 3182 3184
3137 3138 3138 3138 3139 3139 3140 3140 3141 3141 3141 3141 3141 3141 3141 3141 3141 3141 3141 3141 3141 3141 3141 3141 3141 3141 3142 3142 3142 3142 3143 3143 3143 3144 3144 3144 3145 3145 3145 3145 3145 3145 3145 3145 3145 3145 3145 3144 3145 3145 3145 3146 3147 3148 3148 3148 3147 3147 3148 3148 3148 3149 3150 3151 3152 3153 3153 3154 3154 3155 3158 3159 3159 3160 3161 3162 3163 3164 3166 3168 3170 3172 3174 3175 3177 3179 3181 3182
3137 3137 3138 3138 3139 3139 3140 3140 3140 3141 3141 3141 3141 3141 3141 3141 3141 3141 3141 3141 3141 3141 3141 3141 3142 3142 3142 3142 3142 3143 3143 3144 3144 3144 3144 3145 3145 3145 3145 3145 3145 3145 3145 3145 3145 3145 3145 3144 3144 3145 3146 3147 3148 3148 3149 3149 3148 3148 3148 3148 3148 3148 3149 3150 3151 3151 3152 3152 3153 3155 3156 3157 3158 3159 3160 3161 3162 3163 3164 3166 3168 3171 3172 3174 3176 3178 3179 3181
3136 3137 3137 3138 3138 3139 3140 3140 3140 3140 3140 3141 3141 3141 3141 3141 3141 3141 3141 3140 3141 3141 3141 3141 3142 3142 3142 3142 3142 3143 3143 3144 3144 3144 3144 3145 3145 3145 3145 3145 3145 3145 3145 3145 3145 3145 3145 3145 3145 3145 3146 3147 3148 3149 3149 3149 3149 3149 3149 3148 3148 3148 3149 3149 3150 3151 3151 3152 3152 3154 3155 3155 3157 3158 3159 3160 3161 3162 3163 3165 3167 3169 3171 3173 3175 3176 3178 3179
3136 3136 3137 3137 3138 3139 3139 3140 3140 3140 3140 3140 3141 3141 3141 3140 3140 3140 3140 3140 3140 3141 3141 3141 3142 3142 3142 3142 3142 3143 3143 3144 3144 3144 3144 3145 3145 3145 3145 3145 3145 3145 3145 3145 3145 3145 3145 3145 3145 3146 3146 3147 3148 3149 3149 3149 3149 3149 3149 3149 3149 3149 3149 3149 3149 3150 3150 3151 3152 3152 3153 3154 3155 3157 3157 3158 3159 3161 3163 3165 3166 3168 3169 3171 3173 3175 3176 3177
3135 3136 3136 3137 3138 3138 3139 3139 3140 3140 3140 3140 3140 3140 3140 3140 3140 3140 3140 3140 3140 3141 3141 3141 3142 3142 3142 3142 3143 3143 3143 3144 3144 3144 3144 3144 3145 3145 3145 3145 3145 3145 3146 3145 3145 3145 3145 3145 3145 3146 3146 3146 3148 3149 3150 3150 3150 3150 3150 3150 3150 3150 3149 3149 3149 3149 3150 3150 3151 3152 3152 3153 3154 3155 3156 3157 3158 3160 3163 3165 3166 3167 3168 3170 3171 3173 3175 3176